Powrót do katalogu

STARLINK-11296

AktywnyŁącznośćVLEO
NORAD 61699·PAYLOAD·🇺🇸 United States

Wystrzelony Oct 30, 2024 z Vandenberg Space Force Base

Loading…

Następne Przeloty (najbliższe 24 godziny)

TLE

ŚwieżeSource: CelesTrak SupGP

Epoka: Sep 14, 2026, 20:49 UTC

1 61699C 24195N   26257.86784722  .00024269  00000+0  19986-3 0  2573
2 61699  53.1574 173.3489 0001138 100.4172 153.1834 15.69703478    17

Śledź STARLINK-11296 w czasie rzeczywistym z AllMySat

Download on the App Store